Time,TemperatureF,DewpointF,PressureIn,WindDirection,WindDirectionDegrees,WindSpeedMPH,WindSpeedGustMPH,Humidity,HourlyPrecipIn,Conditions,Clouds,dailyrainin,SoftwareType,DateUTC
2013-03-11 00:03:00,57.0,24.0,-100.00,NE,48,6.0,10.0,27,0.00,,,0.00,,2013-03-11 04:03:00,
2013-03-11 00:12:00,57.0,24.0,-100.00,NE,48,6.0,10.0,27,0.00,,,0.00,,2013-03-11 04:12:00,
2013-03-11 00:22:00,57.0,23.0,-100.00,ENE,62,6.0,11.0,26,0.00,,,0.00,,2013-03-11 04:22:00,
2013-03-11 00:33:00,57.0,23.0,-100.00,ENE,62,6.0,11.0,26,0.00,,,0.00,,2013-03-11 04:33:00,
2013-03-11 00:43:00,57.0,23.0,-100.00,ENE,62,6.0,11.0,26,0.00,,,0.00,,2013-03-11 04:43:00,
2013-03-11 00:53:00,57.0,22.0,-100.00,NE,48,7.0,11.0,26,0.00,,,0.00,,2013-03-11 04:53:00,
2013-03-11 01:04:00,56.0,22.0,-100.00,NE,56,5.0,10.0,26,0.00,,,0.00,,2013-03-11 05:04:00,
2013-03-11 01:12:00,56.0,22.0,-100.00,NE,56,5.0,10.0,26,0.00,,,0.00,,2013-03-11 05:12:00,
2013-03-11 01:22:00,56.0,22.0,-100.00,NE,47,5.0,10.0,26,0.00,,,0.00,,2013-03-11 05:22:00,
2013-03-11 01:32:00,56.0,22.0,-100.00,NE,47,5.0,10.0,26,0.00,,,0.00,,2013-03-11 05:32:00,
2013-03-11 01:43:00,56.0,21.0,-100.00,NE,41,6.0,11.0,26,0.00,,,0.00,,2013-03-11 05:43:00,
2013-03-11 01:52:00,56.0,21.0,-100.00,NE,41,6.0,11.0,26,0.00,,,0.00,,2013-03-11 05:52:00,
2013-03-11 02:02:00,56.0,20.0,-100.00,NE,56,6.0,11.0,25,0.00,,,0.00,,2013-03-11 06:02:00,
2013-03-11 02:12:00,56.0,20.0,-100.00,NE,56,6.0,11.0,25,0.00,,,0.00,,2013-03-11 06:12:00,
2013-03-11 02:22:00,55.0,20.0,-100.00,NE,42,6.0,11.0,25,0.00,,,0.00,,2013-03-11 06:22:00,
2013-03-11 02:33:00,55.0,20.0,-100.00,NE,42,6.0,11.0,25,0.00,,,0.00,,2013-03-11 06:33:00,
2013-03-11 02:42:00,55.0,20.0,-100.00,NE,40,5.0,10.0,25,0.00,,,0.00,,2013-03-11 06:42:00,
2013-03-11 02:53:00,54.0,20.0,-100.00,NNE,28,2.0,6.0,26,0.00,,,0.00,,2013-03-11 06:53:00,
2013-03-11 03:03:00,54.0,20.0,-100.00,NNE,28,2.0,6.0,26,0.00,,,0.00,,2013-03-11 07:03:00,
2013-03-11 03:12:00,54.0,20.0,-100.00,NNE,28,2.0,6.0,26,0.00,,,0.00,,2013-03-11 07:12:00,
2013-03-11 03:22:00,53.0,19.0,-100.00,WNW,299,0.0,2.0,27,0.00,,,0.00,,2013-03-11 07:22:00,
2013-03-11 03:32:00,53.0,19.0,-100.00,WNW,299,0.0,2.0,27,0.00,,,0.00,,2013-03-11 07:32:00,
2013-03-11 03:42:00,53.0,20.0,-100.00,NW,306,1.0,2.0,26,0.00,,,0.00,,2013-03-11 07:42:00,
2013-03-11 03:52:00,53.0,20.0,-100.00,NW,306,1.0,2.0,26,0.00,,,0.00,,2013-03-11 07:52:00,
2013-03-11 04:02:00,53.0,20.0,-100.00,North,8,1.0,4.0,27,0.00,,,0.00,,2013-03-11 08:02:00,
2013-03-11 04:12:00,53.0,20.0,-100.00,North,8,1.0,4.0,27,0.00,,,0.00,,2013-03-11 08:12:00,
2013-03-11 04:22:00,53.0,20.0,-100.00,WSW,250,2.0,6.0,27,0.00,,,0.00,,2013-03-11 08:22:00,
2013-03-11 04:33:00,53.0,20.0,-100.00,WSW,250,2.0,6.0,27,0.00,,,0.00,,2013-03-11 08:33:00,
2013-03-11 04:42:00,52.0,20.0,-100.00,WNW,302,2.0,3.0,28,0.00,,,0.00,,2013-03-11 08:42:00,
2013-03-11 04:52:00,52.0,20.0,-100.00,WNW,302,2.0,3.0,28,0.00,,,0.00,,2013-03-11 08:52:00,
2013-03-11 05:02:00,51.0,20.0,-100.00,NW,311,0.0,2.0,30,0.00,,,0.00,,2013-03-11 09:02:00,
2013-03-11 05:12:00,51.0,20.0,-100.00,NW,311,0.0,2.0,30,0.00,,,0.00,,2013-03-11 09:12:00,
2013-03-11 05:23:00,51.0,21.0,-100.00,NNW,330,2.0,4.0,30,0.00,,,0.00,,2013-03-11 09:23:00,
2013-03-11 05:32:00,51.0,21.0,-100.00,NNW,330,2.0,4.0,30,0.00,,,0.00,,2013-03-11 09:32:00,
2013-03-11 05:42:00,51.0,22.0,-100.00,North,1,2.0,5.0,32,0.00,,,0.00,,2013-03-11 09:42:00,
2013-03-11 05:53:00,51.0,22.0,-100.00,North,1,2.0,5.0,32,0.00,,,0.00,,2013-03-11 09:53:00,
2013-03-11 06:02:00,50.0,21.0,-100.00,NNE,21,3.0,6.0,32,0.00,,,0.00,,2013-03-11 10:02:00,
2013-03-11 06:12:00,50.0,21.0,-100.00,NNE,21,3.0,6.0,32,0.00,,,0.00,,2013-03-11 10:12:00,
2013-03-11 06:22:00,51.0,22.0,-100.00,NNE,30,5.0,9.0,31,0.00,,,0.00,,2013-03-11 10:22:00,
2013-03-11 06:32:00,51.0,22.0,-100.00,NNE,30,5.0,9.0,31,0.00,,,0.00,,2013-03-11 10:32:00,
2013-03-11 06:42:00,51.0,22.0,-100.00,NE,38,4.0,8.0,31,0.00,,,0.00,,2013-03-11 10:42:00,
2013-03-11 06:53:00,51.0,22.0,-100.00,NE,38,4.0,8.0,31,0.00,,,0.00,,2013-03-11 10:53:00,
2013-03-11 07:02:00,50.0,22.0,-100.00,NNE,32,4.0,6.0,32,0.00,,,0.00,,2013-03-11 11:02:00,
2013-03-11 07:12:00,50.0,22.0,-100.00,NNE,32,4.0,6.0,32,0.00,,,0.00,,2013-03-11 11:12:00,
2013-03-11 07:23:00,49.0,21.0,-100.00,NNE,28,3.0,6.0,32,0.00,,,0.00,,2013-03-11 11:23:00,
2013-03-11 07:33:00,49.0,21.0,-100.00,NNE,28,3.0,6.0,32,0.00,,,0.00,,2013-03-11 11:33:00,
2013-03-11 07:42:00,49.0,23.0,-100.00,NNW,340,2.0,4.0,36,0.00,,,0.00,,2013-03-11 11:42:00,
2013-03-11 07:53:00,49.0,23.0,-100.00,NNW,340,2.0,4.0,36,0.00,,,0.00,,2013-03-11 11:53:00,
2013-03-11 08:02:00,48.0,21.0,-100.00,North,7,3.0,6.0,33,0.00,,,0.00,,2013-03-11 12:02:00,
2013-03-11 08:12:00,48.0,21.0,-100.00,North,7,3.0,6.0,33,0.00,,,0.00,,2013-03-11 12:12:00,
2013-03-11 08:22:00,49.0,22.0,-100.00,NW,318,1.0,3.0,34,0.00,,,0.00,,2013-03-11 12:22:00,
2013-03-11 08:33:00,49.0,22.0,-100.00,NW,318,1.0,3.0,34,0.00,,,0.00,,2013-03-11 12:33:00,
2013-03-11 08:43:00,48.0,19.0,-100.00,NNE,13,3.0,5.0,32,0.00,,,0.00,,2013-03-11 12:43:00,
2013-03-11 08:53:00,48.0,19.0,-100.00,NNE,13,3.0,5.0,32,0.00,,,0.00,,2013-03-11 12:53:00,
2013-03-11 09:03:00,50.0,19.0,-100.00,WNW,282,3.0,8.0,29,0.00,,,0.00,,2013-03-11 13:03:00,
2013-03-11 09:12:00,50.0,19.0,-100.00,WNW,282,3.0,8.0,29,0.00,,,0.00,,2013-03-11 13:12:00,
2013-03-11 09:22:00,50.0,18.0,-100.00,ENE,73,7.0,14.0,28,0.00,,,0.00,,2013-03-11 13:22:00,
2013-03-11 09:33:00,50.0,18.0,-100.00,ENE,73,7.0,14.0,28,0.00,,,0.00,,2013-03-11 13:33:00,
2013-03-11 09:43:00,51.0,17.0,-100.00,ENE,62,6.0,9.0,26,0.00,,,0.00,,2013-03-11 13:43:00,
2013-03-11 09:53:00,51.0,17.0,-100.00,ENE,62,6.0,9.0,26,0.00,,,0.00,,2013-03-11 13:53:00,
2013-03-11 10:02:00,51.0,17.0,-100.00,East,92,5.0,9.0,26,0.00,,,0.00,,2013-03-11 14:02:00,
2013-03-11 10:12:00,51.0,17.0,-100.00,East,92,5.0,9.0,26,0.00,,,0.00,,2013-03-11 14:12:00,
2013-03-11 10:22:00,51.0,18.0,-100.00,East,93,4.0,11.0,27,0.00,,,0.00,,2013-03-11 14:22:00,
2013-03-11 10:33:00,51.0,19.0,-100.00,SE,131,3.0,7.0,27,0.00,,,0.00,,2013-03-11 14:33:00,
2013-03-11 10:42:00,51.0,19.0,-100.00,SE,131,3.0,7.0,27,0.00,,,0.00,,2013-03-11 14:42:00,
2013-03-11 10:53:00,51.0,19.0,-100.00,SE,131,3.0,7.0,27,0.00,,,0.00,,2013-03-11 14:53:00,
2013-03-11 11:03:00,52.0,19.0,-100.00,East,88,2.0,5.0,27,0.00,,,0.00,,2013-03-11 15:03:00,
2013-03-11 11:13:00,52.0,19.0,-100.00,East,88,2.0,5.0,27,0.00,,,0.00,,2013-03-11 15:13:00,
2013-03-11 11:23:00,52.0,19.0,-100.00,NE,54,3.0,6.0,27,0.00,,,0.00,,2013-03-11 15:23:00,
2013-03-11 11:32:00,52.0,19.0,-100.00,NE,54,3.0,6.0,27,0.00,,,0.00,,2013-03-11 15:32:00,
2013-03-11 11:42:00,54.0,22.0,-100.00,ENE,73,5.0,9.0,29,0.00,,,0.00,,2013-03-11 15:42:00,
2013-03-11 11:53:00,53.0,23.0,-100.00,ENE,72,4.0,9.0,30,0.00,,,0.00,,2013-03-11 15:53:00,
2013-03-11 12:03:00,53.0,23.0,-100.00,ENE,72,4.0,9.0,30,0.00,,,0.00,,2013-03-11 16:03:00,
2013-03-11 12:13:00,53.0,23.0,-100.00,ENE,72,4.0,9.0,30,0.00,,,0.00,,2013-03-11 16:13:00,
2013-03-11 12:22:00,54.0,23.0,-100.00,ENE,75,5.0,9.0,30,0.00,,,0.00,,2013-03-11 16:22:00,
2013-03-11 12:32:00,54.0,23.0,-100.00,ENE,75,5.0,9.0,30,0.00,,,0.00,,2013-03-11 16:32:00,
2013-03-11 12:43:00,54.0,28.0,-100.00,East,89,9.0,13.0,36,0.00,,,0.00,,2013-03-11 16:43:00,
2013-03-11 12:53:00,54.0,28.0,-100.00,East,89,9.0,13.0,36,0.00,,,0.00,,2013-03-11 16:53:00,
2013-03-11 13:03:00,55.0,30.0,-100.00,East,85,6.0,11.0,39,0.00,,,0.00,,2013-03-11 17:03:00,
2013-03-11 13:17:00,55.0,30.0,-100.00,East,85,6.0,11.0,39,0.00,,,0.00,,2013-03-11 17:17:00,
2013-03-11 13:28:00,55.0,32.0,-100.00,East,95,6.0,14.0,42,0.00,,,0.00,,2013-03-11 17:28:00,
2013-03-11 13:38:00,55.0,32.0,-100.00,East,95,6.0,14.0,42,0.00,,,0.00,,2013-03-11 17:38:00,
2013-03-11 13:53:00,54.0,33.0,-100.00,ESE,104,8.0,15.0,44,0.00,,,0.00,,2013-03-11 17:53:00,
2013-03-11 14:02:00,55.0,31.0,-100.00,ENE,64,7.0,10.0,40,0.00,,,0.00,,2013-03-11 18:02:00,
2013-03-11 14:12:00,55.0,31.0,-100.00,ENE,64,7.0,10.0,40,0.00,,,0.00,,2013-03-11 18:12:00,
2013-03-11 14:23:00,54.0,35.0,-100.00,NE,49,8.0,12.0,47,0.00,,,0.00,,2013-03-11 18:23:00,
2013-03-11 14:33:00,54.0,35.0,-100.00,NE,49,8.0,12.0,47,0.00,,,0.00,,2013-03-11 18:33:00,
2013-03-11 14:42:00,54.0,39.0,-100.00,NE,55,6.0,12.0,56,0.00,,,0.00,,2013-03-11 18:42:00,
2013-03-11 14:53:00,54.0,39.0,-100.00,NE,55,6.0,12.0,56,0.00,,,0.00,,2013-03-11 18:53:00,
2013-03-11 15:02:00,54.0,40.0,-100.00,East,86,5.0,12.0,57,0.00,,,0.00,,2013-03-11 19:02:00,
2013-03-11 15:13:00,54.0,40.0,-100.00,East,86,5.0,12.0,57,0.00,,,0.00,,2013-03-11 19:13:00,
2013-03-11 15:23:00,55.0,40.0,-100.00,ENE,71,6.0,10.0,58,0.00,,,0.00,,2013-03-11 19:23:00,
2013-03-11 15:33:00,55.0,40.0,-100.00,ENE,71,6.0,10.0,58,0.00,,,0.00,,2013-03-11 19:33:00,
2013-03-11 15:43:00,55.0,41.0,-100.00,ENE,59,4.0,7.0,59,0.00,,,0.00,,2013-03-11 19:43:00,
2013-03-11 15:53:00,55.0,41.0,-100.00,ENE,59,4.0,7.0,59,0.00,,,0.00,,2013-03-11 19:53:00,
2013-03-11 16:02:00,56.0,42.0,-100.00,ENE,75,4.0,8.0,61,0.00,,,0.00,,2013-03-11 20:02:00,
2013-03-11 16:12:00,56.0,42.0,-100.00,ENE,75,4.0,8.0,61,0.00,,,0.00,,2013-03-11 20:12:00,
2013-03-11 16:22:00,56.0,43.0,-100.00,ENE,68,4.0,10.0,62,0.00,,,0.00,,2013-03-11 20:22:00,
2013-03-11 16:32:00,56.0,43.0,-100.00,ENE,68,4.0,10.0,62,0.00,,,0.00,,2013-03-11 20:32:00,
2013-03-11 16:44:00,57.0,45.0,-100.00,ENE,66,5.0,11.0,64,0.00,,,0.00,,2013-03-11 20:44:00,
2013-03-11 16:53:00,57.0,45.0,-100.00,ENE,66,5.0,11.0,64,0.00,,,0.00,,2013-03-11 20:53:00,
2013-03-11 17:03:00,58.0,46.0,-100.00,ENE,61,8.0,15.0,65,0.00,,,0.00,,2013-03-11 21:03:00,
2013-03-11 17:13:00,58.0,46.0,-100.00,ENE,61,8.0,15.0,65,0.00,,,0.00,,2013-03-11 21:13:00,
2013-03-11 17:23:00,58.0,47.0,-100.00,ENE,64,5.0,10.0,65,0.00,,,0.00,,2013-03-11 21:23:00,
2013-03-11 17:33:00,58.0,47.0,-100.00,ENE,64,5.0,10.0,65,0.00,,,0.00,,2013-03-11 21:33:00,
2013-03-11 17:44:00,59.0,47.0,-100.00,ENE,75,6.0,12.0,64,0.00,,,0.00,,2013-03-11 21:44:00,
2013-03-11 17:54:00,59.0,47.0,-100.00,ENE,75,6.0,12.0,64,0.00,,,0.00,,2013-03-11 21:54:00,
2013-03-11 18:03:00,60.0,47.0,-100.00,ENE,76,4.0,13.0,63,0.00,,,0.00,,2013-03-11 22:03:00,
2013-03-11 18:13:00,60.0,47.0,-100.00,ENE,76,4.0,13.0,63,0.00,,,0.00,,2013-03-11 22:13:00,
2013-03-11 18:23:00,60.0,47.0,-100.00,ENE,73,3.0,8.0,63,0.00,,,0.00,,2013-03-11 22:23:00,
2013-03-11 18:32:00,60.0,47.0,-100.00,ENE,73,3.0,8.0,63,0.00,,,0.00,,2013-03-11 22:32:00,
2013-03-11 18:43:00,60.0,47.0,-100.00,ENE,62,4.0,9.0,61,0.00,,,0.00,,2013-03-11 22:43:00,
2013-03-11 18:53:00,60.0,47.0,-100.00,NE,55,5.0,11.0,62,0.00,,,0.00,,2013-03-11 22:53:00,
2013-03-11 19:03:00,60.0,47.0,-100.00,NE,55,5.0,11.0,62,0.00,,,0.00,,2013-03-11 23:03:00,
2013-03-11 19:12:00,60.0,47.0,-100.00,NE,55,5.0,11.0,62,0.00,,,0.00,,2013-03-11 23:12:00,
2013-03-11 19:22:00,60.0,47.0,-100.00,East,79,4.0,10.0,62,0.00,,,0.00,,2013-03-11 23:22:00,
2013-03-11 19:32:00,60.0,47.0,-100.00,East,79,4.0,10.0,62,0.00,,,0.00,,2013-03-11 23:32:00,
2013-03-11 19:43:00,61.0,47.0,-100.00,NE,51,5.0,16.0,61,0.00,,,0.00,,2013-03-11 23:43:00,
2013-03-11 19:54:00,61.0,47.0,-100.00,NE,51,5.0,16.0,61,0.00,,,0.00,,2013-03-11 23:54:00,
2013-03-11 20:02:00,61.0,47.0,-100.00,NE,48,4.0,9.0,61,0.00,,,0.00,,2013-03-12 00:02:00,
2013-03-11 20:13:00,61.0,47.0,-100.00,NE,48,4.0,9.0,61,0.00,,,0.00,,2013-03-12 00:13:00,
2013-03-11 20:23:00,61.0,47.0,-100.00,ENE,58,10.0,17.0,59,0.00,,,0.00,,2013-03-12 00:23:00,
2013-03-11 20:33:00,61.0,47.0,-100.00,ENE,58,10.0,17.0,59,0.00,,,0.00,,2013-03-12 00:33:00,
2013-03-11 20:43:00,61.0,47.0,-100.00,ENE,61,9.0,17.0,59,0.00,,,0.00,,2013-03-12 00:43:00,
2013-03-11 20:54:00,61.0,47.0,-100.00,ENE,61,9.0,17.0,59,0.00,,,0.00,,2013-03-12 00:54:00,
2013-03-11 21:02:00,60.0,49.0,-100.00,ENE,62,9.0,15.0,66,0.00,,,0.04,,2013-03-12 01:02:00,
2013-03-11 21:12:00,60.0,49.0,-100.00,ENE,62,9.0,15.0,66,0.00,,,0.04,,2013-03-12 01:12:00,
2013-03-11 21:22:00,61.0,47.0,-100.00,ENE,59,11.0,19.0,61,0.00,,,0.04,,2013-03-12 01:22:00,
2013-03-11 21:33:00,62.0,47.0,-100.00,ENE,66,13.0,25.0,59,0.00,,,0.04,,2013-03-12 01:33:00,
2013-03-11 21:42:00,62.0,47.0,-100.00,ENE,66,13.0,25.0,59,0.00,,,0.04,,2013-03-12 01:42:00,
2013-03-11 21:53:00,62.0,47.0,-100.00,ENE,66,13.0,25.0,59,0.00,,,0.04,,2013-03-12 01:53:00,
2013-03-11 22:02:00,62.0,47.0,-100.00,ENE,66,12.0,26.0,59,0.00,,,0.04,,2013-03-12 02:02:00,
2013-03-11 22:13:00,62.0,47.0,-100.00,ENE,66,12.0,26.0,59,0.00,,,0.04,,2013-03-12 02:13:00,
2013-03-11 22:22:00,62.0,48.0,-100.00,NE,52,13.0,29.0,60,0.00,,,0.04,,2013-03-12 02:22:00,
2013-03-11 22:32:00,61.0,49.0,-100.00,ENE,62,11.0,28.0,63,0.00,,,0.04,,2013-03-12 02:32:00,
2013-03-11 22:42:00,61.0,49.0,-100.00,ENE,62,11.0,28.0,63,0.00,,,0.04,,2013-03-12 02:42:00,
2013-03-11 22:52:00,61.0,49.0,-100.00,ENE,62,11.0,28.0,63,0.00,,,0.04,,2013-03-12 02:52:00,
2013-03-11 23:02:00,61.0,49.0,-100.00,ENE,66,10.0,16.0,63,0.01,,,0.04,,2013-03-12 03:02:00,
2013-03-11 23:12:00,61.0,49.0,-100.00,ENE,66,10.0,16.0,63,0.01,,,0.04,,2013-03-12 03:12:00,
2013-03-11 23:22:00,61.0,49.0,-100.00,ENE,68,11.0,22.0,63,0.00,,,0.04,,2013-03-12 03:22:00,
2013-03-11 23:32:00,61.0,49.0,-100.00,ENE,68,11.0,22.0,63,0.00,,,0.04,,2013-03-12 03:32:00,
2013-03-11 23:42:00,61.0,49.0,-100.00,East,86,9.0,25.0,65,0.00,,,0.04,,2013-03-12 03:42:00,
2013-03-11 23:53:00,61.0,49.0,-100.00,ENE,78,8.0,16.0,66,0.00,,,0.04,,2013-03-12 03:53:00,